Terminal Aerodrome Forecast
Issued by NWS

Home | Current Version | Previous Version | Graphics & Text | Print | Product List | Glossary On
Versions: 1 2 3 4 5 6 7 8 9 10 11 12 13 14 15 16 17 18 19 20 21
000
FTUS43 KMPX 180800 AAA
TAFRWF
TAF AMD
KRWF 180854Z 1809/1906 08006KT 4SM BR SCT250
     FM181100 09006KT 3SM BR BKN003
     FM181400 15007KT P6SM SCT006 SCT025
     FM181800 16013KT P6SM SCT045=

USA.gov is the U.S. government's official web portal to all federal, state and local government web resources and services.